This is the latest recevied weather packets stored in our database for station/object OH7GGX-14. If no packets are shown the sender has not sent any weather packets the latest 10 day(s).
| Time | Temp. | Humidity | Pressure | Rain* | Wind** | Luminosity | Snow |
|---|---|---|---|---|---|---|---|
| 1777834297 | 5° C | 73% | 1008.6 hPa | 0 mm | - | - | - |
| 1777833697 | 6.11° C | 70% | 1008.6 hPa | 0 mm | - | - | - |
| 1777833097 | 6.67° C | 67% | 1008.6 hPa | 0 mm | - | - | - |
| 1777832497 | 7.78° C | 64% | 1008.6 hPa | 0 mm | - | - | - |
| 1777831897 | 8.33° C | 62% | 1008.5 hPa | 0 mm | - | - | - |
| 1777831297 | 9.44° C | 60% | 1008.2 hPa | 0 mm | - | - | - |
| 1777830697 | 10° C | 58% | 1008.2 hPa | 0 mm | - | - | - |
| 1777830097 | 10.56° C | 58% | 1008.2 hPa | 0 mm | - | - | - |
| 1777829497 | 10.56° C | 57% | 1008.1 hPa | 0 mm | - | - | - |
| 1777828897 | 11.11° C | 57% | 1008 hPa | 0 mm | - | - | - |
| 1777828297 | 11.11° C | 57% | 1007.8 hPa | 0 mm | - | - | - |
| 1777827697 | 11.11° C | 57% | 1007.8 hPa | 0 mm | - | - | - |
| 1777827098 | 11.67° C | 56% | 1007.8 hPa | 0 mm | - | - | - |
| 1777826498 | 11.67° C | 55% | 1007.7 hPa | 0 mm | - | - | - |
| 1777825898 | 11.67° C | 55% | 1007.7 hPa | 0 mm | - | - | - |
| 1777825298 | 12.22° C | 55% | 1007.7 hPa | 0 mm | - | - | - |
| 1777824698 | 12.22° C | 55% | 1007.6 hPa | 0 mm | - | - | - |
| 1777824098 | 12.22° C | 55% | 1007.5 hPa | 0 mm | - | - | - |
| 1777823498 | 12.22° C | 54% | 1007.6 hPa | 0 mm | - | - | - |
| 1777822898 | 12.22° C | 53% | 1007.5 hPa | 0 mm | - | - | - |
| 1777822298 | 12.22° C | 54% | 1007.5 hPa | 0 mm | - | - | - |
| 1777821698 | 12.78° C | 53% | 1007.5 hPa | 0 mm | - | - | - |
| 1777821098 | 12.78° C | 53% | 1007.4 hPa | 0 mm | - | - | - |
| 1777820498 | 12.78° C | 55% | 1007.4 hPa | 0 mm | - | - | - |
| 1777819898 | 12.78° C | 54% | 1007.3 hPa | 0 mm | - | - | - |
* Rain latest hour (hover to see other rain measurements)
** Current wind speed in m/s (hover to see current wind gust speed)